Regional Weather Roundup
Issued by NWS Charleston, SC

Current Version | Previous Version | Graphics & Text | Print | Product List | Glossary On
Versions: 1 2 3 4 5 6 7 8 9 10 11 12 13 14 15 16 17 18 19 20 21 22 23 24 25 26 27 28 29 30 31 32 33 34 35 36 37 38 39 40 41 42 43 44 45 46 47 48 49 50
546 ASUS42 KCHS 291510 RWRCHS REGIONAL WEATHER ROUNDUP NATIONAL WEATHER SERVICE CHARLESTON SC 1100 AM EDT THU SEP 29 2016 NOTE: "FAIR" INDICATES FEW OR NO CLOUDS BELOW 12,000 FEET WITH NO SIGNIFICANT WEATHER AND/OR OBSTRUCTIONS TO VISIBILITY. NOT ALL STATIONS ARE QUALITY CONTROLLED. USE DATA WITH CAUTION... ESPECIALLY DEWPOINT OBSERVATIONS. SCZ027-030-031-034>040-042>050-291600- ...SOUTHEAST SOUTH CAROLINA... CITY SKY/WX TMP DP RH WIND PRES REMARKS N CHARLESTON FAIR 83 73 72 S7 29.97F WATERFRONT PRK N/A 81 76 85 SW5 29.96R MOUNT PLEASANT FAIR 82 75 78 S7 29.98S JOHNS ISLAND FAIR 84 75 74 SE7 29.98S HX 92 PINOPOLIS N/A 81 75 83 VRB2 29.90S MONCKS CORNER PTSUNNY 81 73 78 SW7 29.97S SUMMERVILLE FAIR 82 73 74 SE3 29.98S BEAUFORT MCAS FAIR 82 72 71 SW6 29.99R BEAUFORT ARPT FAIR 81 72 74 SW5 29.98S HILTON HEAD IS MOSUNNY 86 72 62 SW7 30.00F HX 92 WALTERBORO FAIR 82 70 65 SE3 29.99S ALLENDALE FAIR 79 70 73 VRB6 29.99R ...SOUTHERN MIDLANDS AND PEE DEE... CITY SKY/WX TMP DP RH WIND PRES REMARKS GEORGETOWN PTSUNNY 81 73 78 S10 29.98S KINGSTREE PTSUNNY 81 72 74 SW5 29.97R ORANGEBURG PTSUNNY 78 69 73 SW3 29.98R BARNWELL NOT AVBL AIKEN FAIR 79 61 53 W6 30.01R MANNING CLOUDY 77 70 78 S5 29.97S COLUMBIA FAIR 80 66 62 SE3 29.95S SUMTER PTSUNNY 81 67 63 W5 29.94S FLORENCE CLOUDY 76 70 82 E10 29.98S MYRTLE BEACH LGT RAIN 77 66 69 SW8 30.00R N MYRTLE BEACH FAIR 82 72 71 S15 29.98R $$ GAZ063-065-086>088-099>101-113>116-118-119-134>141-150-291600- ...SOUTHEAST GEORGIA... CITY SKY/WX TMP DP RH WIND PRES REMARKS SAVANNAH ARPT FAIR 84 69 60 CALM 29.99R HUNTER AAF FAIR 83 76 80 VRB1 29.97R HX 91 FORT STEWART PTSUNNY 81 70 69 VRB1 29.98R STATESBORO FAIR 82 69 64 NW7 29.99R SYLVANIA NOT AVBL CLAXTON FAIR 83 67 59 SW3 29.99S ...CSRA...CENTRAL AND FAR SOUTHEAST GEORGIA... CITY SKY/WX TMP DP RH WIND PRES REMARKS THOMSON FAIR 82 58 43 SW3 30.01S AUGUSTA-BUSH FAIR 80 56 43 SW3 29.97R AUGUSTA-DANIEL FAIR 80 53 39 VRB3 29.99R SWAINSBORO FAIR 82 55 39 SW3 30.01R VIDALIA FAIR 81 73 78 CALM 30.01R EASTMAN FAIR 82 52 34 W3 30.02S HAZLEHURST PTSUNNY 83 67 58 CALM 29.99S ALMA CLOUDY 81 72 74 W3 30.01R WAYCROSS PTSUNNY 83 77 81 SW5 30.01R HX 92 JESUP CLOUDY 81 77 89 SW5 30.01R BAXLEY PTSUNNY 81 73 78 S3 30.00S BRUNSWICK PTSUNNY 82 75 78 W5 30.01S SAINT SIMONS FAIR 81 73 76 W7 30.00S $$ SCZ027-028-034-036>038-045-046-048>050-GAZ119-141-291600- ...LAKE AND SUPPLEMENTAL COASTAL OBSERVATIONS... STATION/POSITION TIME TEMP WIND PRES WAVE SWELL AIR SEA DIR/SP/G HT/PER HT/PER/DIR (UTC) (F) (DEG/KT/KT) (MB) (FT/S) (FT/S/D) WINYAH BAY NOT AVBL LAKE MURRAY NOT AVBL ACE BASIN NERRS NOT AVBL FORT PULASKI NOT AVBL SAPELO ISLAND NOT AVBL $$ ANZ835-935-AMZ111-154-330-350-352-354-370-450-454-472-291600- ...C-MAN AND BUOY OBSERVATIONS... STATION/POSITION TIME TEMP WIND PRES WAVE SWELL AIR SEA DIR/SP/G HT/PER HT/PER/DIR (UTC) (F) (DEG/KT/KT) (MB) (FT/S) (FT/S/D) BUOY 41004 NOT AVBL BUOY 41008 NOT AVBL FOLLY BEACH CMAN NOT AVBL CAPERS NEARSHORE NOT AVBL FRIPP NEARSHORE NOT AVBL STATION/POSITION TIME TEMP WIND PRES WAVE SWELL AIR SEA DIR/SP/G HT/PER HT/PER/DIR (UTC) (F) (DEG/KT/KT) (MB) (FT/S) (FT/S/D) 5E ST. MARYS GA NOT AVBL FRYING PAN BUOY NOT AVBL BUOY 41025 NOT AVBL CAPE LOOKOUT NC NOT AVBL BUOY 41002 NOT AVBL BUOY 41010 NOT AVBL ST AUGUSTINE FL NOT AVBL $$

USA.gov is the U.S. government's official web portal to all federal, state and local government web resources and services.